Location: Earls Croome
(52.0667°N, 2.2000°W)
Time: 03:00:58
(UTC+00:00)

STARLINK-58 - Pass Details

Date: 17 November 2019
Orbit: 529 x 531 km, 53.0° (Epoch: 12 December)

Event Time Altitude Azimuth Distance (km) Brightness Sun altitude
Exits shadow 06:27:00 - 234° (SW) 2,713 6.8 -9.9°
Rises 06:27:06 0° 234° (SW) 2,670 6.8 -9.9°
Reaches altitude 10° 06:29:19 10° 229° (SW) 1,791 5.9 -9.5°
Maximum altitude 06:33:16 53° 153° (SSE) 680 4.4 -9.0°
Drops below altitude 10° 06:37:21 10° 77° (ENE) 1,853 7.3 -8.4°
Sets 06:39:41 0° 72° (ENE) 2,773 8.1 -8.0°
